#datetime,building,power
2024-03-28T00:00:00,sdl,4.49
2024-03-28T00:01:00,sdl,4.16
2024-03-28T00:02:00,sdl,4.13
2024-03-28T00:03:00,sdl,4.25
2024-03-28T00:04:00,sdl,4.06
2024-03-28T00:05:00,sdl,4.04
2024-03-28T00:06:00,sdl,4.57
2024-03-28T00:07:00,sdl,4.30
2024-03-28T00:08:00,sdl,4.10
2024-03-28T00:09:00,sdl,4.07
2024-03-28T00:10:00,sdl,3.98
2024-03-28T00:11:00,sdl,4.09
2024-03-28T00:12:00,sdl,4.88
2024-03-28T00:13:00,sdl,5.15
2024-03-28T00:14:00,sdl,5.20
2024-03-28T00:15:00,sdl,4.91
2024-03-28T00:16:00,sdl,4.83
2024-03-28T00:17:00,sdl,6.60
2024-03-28T00:18:00,sdl,6.25
2024-03-28T00:19:00,sdl,6.89
2024-03-28T00:20:00,sdl,6.66
2024-03-28T00:21:00,sdl,6.59
2024-03-28T00:22:00,sdl,6.57
2024-03-28T00:23:00,sdl,7.26
2024-03-28T00:24:00,sdl,6.57
2024-03-28T00:25:00,sdl,6.83
2024-03-28T00:26:00,sdl,7.21
2024-03-28T00:27:00,sdl,6.94
2024-03-28T00:28:00,sdl,6.63
2024-03-28T00:29:00,sdl,6.59
2024-03-28T00:30:00,sdl,6.60
2024-03-28T00:31:00,sdl,4.41
2024-03-28T00:32:00,sdl,4.48
2024-03-28T00:33:00,sdl,4.26
2024-03-28T00:34:00,sdl,4.27
2024-03-28T00:35:00,sdl,4.53
2024-03-28T00:36:00,sdl,4.35
2024-03-28T00:37:00,sdl,4.29
2024-03-28T00:38:00,sdl,4.29
2024-03-28T00:39:00,sdl,4.32
2024-03-28T00:40:00,sdl,4.40
2024-03-28T00:41:00,sdl,4.53
2024-03-28T00:42:00,sdl,5.07
2024-03-28T00:43:00,sdl,4.49
2024-03-28T00:44:00,sdl,5.50
2024-03-28T00:45:00,sdl,5.89
2024-03-28T00:46:00,sdl,8.60
2024-03-28T00:47:00,sdl,7.37
2024-03-28T00:48:00,sdl,7.00
2024-03-28T00:49:00,sdl,6.62
2024-03-28T00:50:00,sdl,6.59
2024-03-28T00:51:00,sdl,6.56
2024-03-28T00:52:00,sdl,6.66
2024-03-28T00:53:00,sdl,6.62
2024-03-28T00:54:00,sdl,6.63
2024-03-28T00:55:00,sdl,6.63
2024-03-28T00:56:00,sdl,6.71
2024-03-28T00:57:00,sdl,6.81
2024-03-28T00:58:00,sdl,4.02
2024-03-28T00:59:00,sdl,3.89
2024-03-28T01:00:00,sdl,3.80
2024-03-28T01:01:00,sdl,4.61
2024-03-28T01:02:00,sdl,3.86
2024-03-28T01:03:00,sdl,4.11
2024-03-28T01:04:00,sdl,4.57
2024-03-28T01:05:00,sdl,3.90
2024-03-28T01:06:00,sdl,4.11
2024-03-28T01:07:00,sdl,3.95
2024-03-28T01:08:00,sdl,4.57
2024-03-28T01:09:00,sdl,4.30
2024-03-28T01:10:00,sdl,4.54
2024-03-28T01:11:00,sdl,4.29
2024-03-28T01:12:00,sdl,4.52
2024-03-28T01:13:00,sdl,4.28
2024-03-28T01:14:00,sdl,4.21
2024-03-28T01:15:00,sdl,4.24
2024-03-28T01:16:00,sdl,5.42
2024-03-28T01:17:00,sdl,5.01
2024-03-28T01:18:00,sdl,6.21
2024-03-28T01:19:00,sdl,5.06
2024-03-28T01:20:00,sdl,4.26
2024-03-28T01:21:00,sdl,4.23
2024-03-28T01:22:00,sdl,4.44
2024-03-28T01:23:00,sdl,4.32
2024-03-28T01:24:00,sdl,4.42
2024-03-28T01:25:00,sdl,4.40
2024-03-28T01:26:00,sdl,4.40
2024-03-28T01:27:00,sdl,4.61
2024-03-28T01:28:00,sdl,4.65
2024-03-28T01:29:00,sdl,4.36
2024-03-28T01:30:00,sdl,4.37
2024-03-28T01:31:00,sdl,4.32
2024-03-28T01:32:00,sdl,6.58
2024-03-28T01:33:00,sdl,6.48
2024-03-28T01:34:00,sdl,6.86
2024-03-28T01:35:00,sdl,6.73
2024-03-28T01:36:00,sdl,6.43
2024-03-28T01:37:00,sdl,6.50
2024-03-28T01:38:00,sdl,6.58
2024-03-28T01:39:00,sdl,6.46
2024-03-28T01:40:00,sdl,6.52
2024-03-28T01:41:00,sdl,6.45
2024-03-28T01:42:00,sdl,6.54
2024-03-28T01:43:00,sdl,6.23
2024-03-28T01:44:00,sdl,6.24
2024-03-28T01:45:00,sdl,6.61
2024-03-28T01:46:00,sdl,6.54
2024-03-28T01:47:00,sdl,7.96
2024-03-28T01:48:00,sdl,5.74
2024-03-28T01:49:00,sdl,5.21
2024-03-28T01:50:00,sdl,5.22
2024-03-28T01:51:00,sdl,5.66
2024-03-28T01:52:00,sdl,4.62
2024-03-28T01:53:00,sdl,4.65
2024-03-28T01:54:00,sdl,4.72
2024-03-28T01:55:00,sdl,4.99
2024-03-28T01:56:00,sdl,5.10
2024-03-28T01:57:00,sdl,4.70
2024-03-28T01:58:00,sdl,4.85
2024-03-28T01:59:00,sdl,4.77
2024-03-28T02:00:00,sdl,4.90
2024-03-28T02:01:00,sdl,4.72
2024-03-28T02:02:00,sdl,5.83
2024-03-28T02:03:00,sdl,5.83
2024-03-28T02:04:00,sdl,5.88
2024-03-28T02:05:00,sdl,5.85
2024-03-28T02:06:00,sdl,5.88
2024-03-28T02:07:00,sdl,5.89
2024-03-28T02:08:00,sdl,5.92
2024-03-28T02:09:00,sdl,6.16
2024-03-28T02:10:00,sdl,6.24
2024-03-28T02:11:00,sdl,5.89
2024-03-28T02:12:00,sdl,8.30
2024-03-28T02:13:00,sdl,8.21
2024-03-28T02:14:00,sdl,8.11
2024-03-28T02:15:00,sdl,8.03
2024-03-28T02:16:00,sdl,8.12
2024-03-28T02:17:00,sdl,8.18
2024-03-28T02:18:00,sdl,8.20
2024-03-28T02:19:00,sdl,8.29
2024-03-28T02:20:00,sdl,9.83
2024-03-28T02:21:00,sdl,7.70
2024-03-28T02:22:00,sdl,7.30
2024-03-28T02:23:00,sdl,6.96
2024-03-28T02:24:00,sdl,7.02
2024-03-28T02:25:00,sdl,6.12
2024-03-28T02:26:00,sdl,5.83
2024-03-28T02:27:00,sdl,5.60
2024-03-28T02:28:00,sdl,5.69
2024-03-28T02:29:00,sdl,5.51
2024-03-28T02:30:00,sdl,6.01
2024-03-28T02:31:00,sdl,5.53
2024-03-28T02:32:00,sdl,5.48
2024-03-28T02:33:00,sdl,5.45
2024-03-28T02:34:00,sdl,5.52
2024-03-28T02:35:00,sdl,5.50
2024-03-28T02:36:00,sdl,6.67
2024-03-28T02:37:00,sdl,5.62
2024-03-28T02:38:00,sdl,5.60
2024-03-28T02:39:00,sdl,5.60
2024-03-28T02:40:00,sdl,5.64
2024-03-28T02:41:00,sdl,5.71
2024-03-28T02:42:00,sdl,5.99
2024-03-28T02:43:00,sdl,5.71
2024-03-28T02:44:00,sdl,6.18
2024-03-28T02:45:00,sdl,7.95
2024-03-28T02:46:00,sdl,8.08
2024-03-28T02:47:00,sdl,8.02
2024-03-28T02:48:00,sdl,8.04
2024-03-28T02:49:00,sdl,7.96
2024-03-28T02:50:00,sdl,7.99
2024-03-28T02:51:00,sdl,8.52
2024-03-28T02:52:00,sdl,8.42
2024-03-28T02:53:00,sdl,8.40
2024-03-28T02:54:00,sdl,8.28
2024-03-28T02:55:00,sdl,8.88
2024-03-28T02:56:00,sdl,8.82
2024-03-28T02:57:00,sdl,8.68
2024-03-28T02:58:00,sdl,8.69
2024-03-28T02:59:00,sdl,8.64
2024-03-28T03:00:00,sdl,7.82
2024-03-28T03:01:00,sdl,7.79
2024-03-28T03:02:00,sdl,5.61
2024-03-28T03:03:00,sdl,5.54
2024-03-28T03:04:00,sdl,5.49
2024-03-28T03:05:00,sdl,5.63
2024-03-28T03:06:00,sdl,5.64
2024-03-28T03:07:00,sdl,5.86
2024-03-28T03:08:00,sdl,5.67
2024-03-28T03:09:00,sdl,5.59
2024-03-28T03:10:00,sdl,5.56
2024-03-28T03:11:00,sdl,5.51
2024-03-28T03:12:00,sdl,5.52
2024-03-28T03:13:00,sdl,5.47
2024-03-28T03:14:00,sdl,5.44
2024-03-28T03:15:00,sdl,6.16
2024-03-28T03:16:00,sdl,5.71
2024-03-28T03:17:00,sdl,5.67
2024-03-28T03:18:00,sdl,6.61
2024-03-28T03:19:00,sdl,6.77
2024-03-28T03:20:00,sdl,6.83
2024-03-28T03:21:00,sdl,6.62
2024-03-28T03:22:00,sdl,6.70
2024-03-28T03:23:00,sdl,6.67
2024-03-28T03:24:00,sdl,6.71
2024-03-28T03:25:00,sdl,7.13
2024-03-28T03:26:00,sdl,6.32
2024-03-28T03:27:00,sdl,5.82
2024-03-28T03:28:00,sdl,5.83
2024-03-28T03:29:00,sdl,5.80
2024-03-28T03:30:00,sdl,7.27
2024-03-28T03:31:00,sdl,6.67
2024-03-28T03:32:00,sdl,6.62
2024-03-28T03:33:00,sdl,6.69
2024-03-28T03:34:00,sdl,6.96
2024-03-28T03:35:00,sdl,6.03
2024-03-28T03:36:00,sdl,6.00
2024-03-28T03:37:00,sdl,5.95
2024-03-28T03:38:00,sdl,5.97
2024-03-28T03:39:00,sdl,5.94
2024-03-28T03:40:00,sdl,5.72
2024-03-28T03:41:00,sdl,5.81
2024-03-28T03:42:00,sdl,5.74
2024-03-28T03:43:00,sdl,5.80
2024-03-28T03:44:00,sdl,5.81
2024-03-28T03:45:00,sdl,7.96
2024-03-28T03:46:00,sdl,8.64
2024-03-28T03:47:00,sdl,8.68
2024-03-28T03:48:00,sdl,8.25
2024-03-28T03:49:00,sdl,8.25
2024-03-28T03:50:00,sdl,8.12
2024-03-28T03:51:00,sdl,8.16
2024-03-28T03:52:00,sdl,8.85
2024-03-28T03:53:00,sdl,8.76
2024-03-28T03:54:00,sdl,8.37
2024-03-28T03:55:00,sdl,7.97
2024-03-28T03:56:00,sdl,8.02
2024-03-28T03:57:00,sdl,8.15
2024-03-28T03:58:00,sdl,5.89
2024-03-28T03:59:00,sdl,5.92
2024-03-28T04:00:00,sdl,5.53
2024-03-28T04:01:00,sdl,5.58
2024-03-28T04:02:00,sdl,5.65
2024-03-28T04:03:00,sdl,5.68
2024-03-28T04:04:00,sdl,6.61
2024-03-28T04:05:00,sdl,6.42
2024-03-28T04:06:00,sdl,6.44
2024-03-28T04:07:00,sdl,6.42
2024-03-28T04:08:00,sdl,6.43
2024-03-28T04:09:00,sdl,5.94
2024-03-28T04:10:00,sdl,5.56
2024-03-28T04:11:00,sdl,5.53
2024-03-28T04:12:00,sdl,7.79
2024-03-28T04:13:00,sdl,7.80
2024-03-28T04:14:00,sdl,7.76
2024-03-28T04:15:00,sdl,7.82
2024-03-28T04:16:00,sdl,7.82
2024-03-28T04:17:00,sdl,7.84
2024-03-28T04:18:00,sdl,7.89
2024-03-28T04:19:00,sdl,7.94
2024-03-28T04:20:00,sdl,7.92
2024-03-28T04:21:00,sdl,8.32
2024-03-28T04:22:00,sdl,8.68
2024-03-28T04:23:00,sdl,8.48
2024-03-28T04:24:00,sdl,8.00
2024-03-28T04:25:00,sdl,5.72
2024-03-28T04:26:00,sdl,5.83
2024-03-28T04:27:00,sdl,5.87
2024-03-28T04:28:00,sdl,5.83
2024-03-28T04:29:00,sdl,6.33
2024-03-28T04:30:00,sdl,5.74
2024-03-28T04:31:00,sdl,5.70
2024-03-28T04:32:00,sdl,5.81
2024-03-28T04:33:00,sdl,5.82
2024-03-28T04:34:00,sdl,6.00
2024-03-28T04:35:00,sdl,5.78
2024-03-28T04:36:00,sdl,5.78
2024-03-28T04:37:00,sdl,5.74
2024-03-28T04:38:00,sdl,6.32
2024-03-28T04:39:00,sdl,6.31
2024-03-28T04:40:00,sdl,6.41
2024-03-28T04:41:00,sdl,6.42
2024-03-28T04:42:00,sdl,5.58
2024-03-28T04:43:00,sdl,5.52
2024-03-28T04:44:00,sdl,5.57
2024-03-28T04:45:00,sdl,5.73
2024-03-28T04:46:00,sdl,5.99
2024-03-28T04:47:00,sdl,5.71
2024-03-28T04:48:00,sdl,6.69
2024-03-28T04:49:00,sdl,6.28
2024-03-28T04:50:00,sdl,5.99
2024-03-28T04:51:00,sdl,6.60
2024-03-28T04:52:00,sdl,5.73
2024-03-28T04:53:00,sdl,5.40
2024-03-28T04:54:00,sdl,5.89
2024-03-28T04:55:00,sdl,5.92
2024-03-28T04:56:00,sdl,6.26
2024-03-28T04:57:00,sdl,6.23
2024-03-28T04:58:00,sdl,5.83
2024-03-28T04:59:00,sdl,5.78
2024-03-28T05:00:00,sdl,5.92
2024-03-28T05:01:00,sdl,5.84
2024-03-28T05:02:00,sdl,8.05
2024-03-28T05:03:00,sdl,7.97
2024-03-28T05:04:00,sdl,8.27
2024-03-28T05:05:00,sdl,8.04
2024-03-28T05:06:00,sdl,8.02
2024-03-28T05:07:00,sdl,7.96
2024-03-28T05:08:00,sdl,7.99
2024-03-28T05:09:00,sdl,8.17
2024-03-28T05:10:00,sdl,8.52
2024-03-28T05:11:00,sdl,8.47
2024-03-28T05:12:00,sdl,9.24
2024-03-28T05:13:00,sdl,9.10
2024-03-28T05:14:00,sdl,9.40
2024-03-28T05:15:00,sdl,9.75
2024-03-28T05:16:00,sdl,9.20
2024-03-28T05:17:00,sdl,8.25
2024-03-28T05:18:00,sdl,7.91
2024-03-28T05:19:00,sdl,7.81
2024-03-28T05:20:00,sdl,5.44
2024-03-28T05:21:00,sdl,5.23
2024-03-28T05:22:00,sdl,5.22
2024-03-28T05:23:00,sdl,5.92
2024-03-28T05:24:00,sdl,5.20
2024-03-28T05:25:00,sdl,5.19
2024-03-28T05:26:00,sdl,5.26
2024-03-28T05:27:00,sdl,5.58
2024-03-28T05:28:00,sdl,4.34
2024-03-28T05:29:00,sdl,5.93
2024-03-28T05:30:00,sdl,6.70
2024-03-28T05:31:00,sdl,6.23
2024-03-28T05:32:00,sdl,8.97
2024-03-28T05:33:00,sdl,7.97
2024-03-28T05:34:00,sdl,8.60
2024-03-28T05:35:00,sdl,8.26
2024-03-28T05:36:00,sdl,8.36
2024-03-28T05:37:00,sdl,8.40
2024-03-28T05:38:00,sdl,8.56
2024-03-28T05:39:00,sdl,8.87
2024-03-28T05:40:00,sdl,8.93
2024-03-28T05:41:00,sdl,8.60
2024-03-28T05:42:00,sdl,8.76
2024-03-28T05:43:00,sdl,8.64
2024-03-28T05:44:00,sdl,7.90
2024-03-28T05:45:00,sdl,10.13
2024-03-28T05:46:00,sdl,10.12
2024-03-28T05:47:00,sdl,10.13
2024-03-28T05:48:00,sdl,10.11
2024-03-28T05:49:00,sdl,10.24
2024-03-28T05:50:00,sdl,10.00
2024-03-28T05:51:00,sdl,9.98
2024-03-28T05:52:00,sdl,9.99
2024-03-28T05:53:00,sdl,9.92
2024-03-28T05:54:00,sdl,7.78
2024-03-28T05:55:00,sdl,7.70
2024-03-28T05:56:00,sdl,7.80
2024-03-28T05:57:00,sdl,8.49
2024-03-28T05:58:00,sdl,8.07
2024-03-28T05:59:00,sdl,8.81
2024-03-28T06:00:00,sdl,8.03
2024-03-28T06:01:00,sdl,8.68
2024-03-28T06:02:00,sdl,8.39
2024-03-28T06:03:00,sdl,8.17
2024-03-28T06:04:00,sdl,7.93
2024-03-28T06:05:00,sdl,7.81
2024-03-28T06:06:00,sdl,7.82
2024-03-28T06:07:00,sdl,7.78
2024-03-28T06:08:00,sdl,7.79
2024-03-28T06:09:00,sdl,7.81
2024-03-28T06:10:00,sdl,7.76
2024-03-28T06:11:00,sdl,7.98
2024-03-28T06:12:00,sdl,7.81
2024-03-28T06:13:00,sdl,8.62
2024-03-28T06:14:00,sdl,7.53
2024-03-28T06:15:00,sdl,8.40
2024-03-28T06:16:00,sdl,8.37
2024-03-28T06:17:00,sdl,10.47
2024-03-28T06:18:00,sdl,10.49
2024-03-28T06:19:00,sdl,10.66
2024-03-28T06:20:00,sdl,9.70
2024-03-28T06:21:00,sdl,9.74
2024-03-28T06:22:00,sdl,10.32
2024-03-28T06:23:00,sdl,9.73
2024-03-28T06:24:00,sdl,9.71
2024-03-28T06:25:00,sdl,9.77
2024-03-28T06:26:00,sdl,9.80
2024-03-28T06:27:00,sdl,9.90
2024-03-28T06:28:00,sdl,10.24
2024-03-28T06:29:00,sdl,10.67
2024-03-28T06:30:00,sdl,9.70
2024-03-28T06:31:00,sdl,9.66
2024-03-28T06:32:00,sdl,9.86
2024-03-28T06:33:00,sdl,9.67
2024-03-28T06:34:00,sdl,9.56
2024-03-28T06:35:00,sdl,8.42
2024-03-28T06:36:00,sdl,7.31
2024-03-28T06:37:00,sdl,7.38
2024-03-28T06:38:00,sdl,7.35
2024-03-28T06:39:00,sdl,7.38
2024-03-28T06:40:00,sdl,6.22
2024-03-28T06:41:00,sdl,4.48
2024-03-28T06:42:00,sdl,4.45
2024-03-28T06:43:00,sdl,4.47
2024-03-28T06:44:00,sdl,4.77
2024-03-28T06:45:00,sdl,4.48
2024-03-28T06:46:00,sdl,4.81
2024-03-28T06:47:00,sdl,4.44
2024-03-28T06:48:00,sdl,4.23
2024-03-28T06:49:00,sdl,4.54
2024-03-28T06:50:00,sdl,4.38
2024-03-28T06:51:00,sdl,5.07
2024-03-28T06:52:00,sdl,4.36
2024-03-28T06:53:00,sdl,4.61
2024-03-28T06:54:00,sdl,5.06
2024-03-28T06:55:00,sdl,4.42
2024-03-28T06:56:00,sdl,6.02
2024-03-28T06:57:00,sdl,5.71
2024-03-28T06:58:00,sdl,5.77
2024-03-28T06:59:00,sdl,5.66
2024-03-28T07:00:00,sdl,4.84
2024-03-28T07:01:00,sdl,4.81
2024-03-28T07:02:00,sdl,4.77
2024-03-28T07:03:00,sdl,5.04
2024-03-28T07:04:00,sdl,4.79
2024-03-28T07:05:00,sdl,4.69
2024-03-28T07:06:00,sdl,4.74
2024-03-28T07:07:00,sdl,4.70
2024-03-28T07:08:00,sdl,4.98
2024-03-28T07:09:00,sdl,4.79
2024-03-28T07:10:00,sdl,4.75
2024-03-28T07:11:00,sdl,4.92
2024-03-28T07:12:00,sdl,5.04
2024-03-28T07:13:00,sdl,4.83
2024-03-28T07:14:00,sdl,5.00
2024-03-28T07:15:00,sdl,4.97
2024-03-28T07:16:00,sdl,5.01
2024-03-28T07:17:00,sdl,7.13
2024-03-28T07:18:00,sdl,7.23
2024-03-28T07:19:00,sdl,7.00
2024-03-28T07:20:00,sdl,7.06
2024-03-28T07:21:00,sdl,7.05
2024-03-28T07:22:00,sdl,7.01
2024-03-28T07:23:00,sdl,7.04
2024-03-28T07:24:00,sdl,7.01
2024-03-28T07:25:00,sdl,7.43
2024-03-28T07:26:00,sdl,7.42
2024-03-28T07:27:00,sdl,7.02
2024-03-28T07:28:00,sdl,7.03
2024-03-28T07:29:00,sdl,7.36
2024-03-28T07:30:00,sdl,7.07
2024-03-28T07:31:00,sdl,6.94
2024-03-28T07:32:00,sdl,4.68
2024-03-28T07:33:00,sdl,4.82
2024-03-28T07:34:00,sdl,4.68
2024-03-28T07:35:00,sdl,4.64
2024-03-28T07:36:00,sdl,4.71
2024-03-28T07:37:00,sdl,4.69
2024-03-28T07:38:00,sdl,5.54
2024-03-28T07:39:00,sdl,5.44
2024-03-28T07:40:00,sdl,5.67
2024-03-28T07:41:00,sdl,5.69
2024-03-28T07:42:00,sdl,4.89
2024-03-28T07:43:00,sdl,5.01
2024-03-28T07:44:00,sdl,6.08
2024-03-28T07:45:00,sdl,6.26
2024-03-28T07:46:00,sdl,11.19
2024-03-28T07:47:00,sdl,11.03
2024-03-28T07:48:00,sdl,11.07
2024-03-28T07:49:00,sdl,11.11
2024-03-28T07:50:00,sdl,11.25
2024-03-28T07:51:00,sdl,10.56
2024-03-28T07:52:00,sdl,10.65
2024-03-28T07:53:00,sdl,10.68
2024-03-28T07:54:00,sdl,11.12
2024-03-28T07:55:00,sdl,11.18
2024-03-28T07:56:00,sdl,10.86
2024-03-28T07:57:00,sdl,10.93
2024-03-28T07:58:00,sdl,10.68
2024-03-28T07:59:00,sdl,9.64
2024-03-28T08:00:00,sdl,9.62
2024-03-28T08:01:00,sdl,9.55
2024-03-28T08:02:00,sdl,9.69
2024-03-28T08:03:00,sdl,9.67
2024-03-28T08:04:00,sdl,9.64
2024-03-28T08:05:00,sdl,9.34
2024-03-28T08:06:00,sdl,9.09
2024-03-28T08:07:00,sdl,9.21
2024-03-28T08:08:00,sdl,9.63
2024-03-28T08:09:00,sdl,9.33
2024-03-28T08:10:00,sdl,9.30
2024-03-28T08:11:00,sdl,9.19
2024-03-28T08:12:00,sdl,9.22
2024-03-28T08:13:00,sdl,9.25
2024-03-28T08:14:00,sdl,9.12
2024-03-28T08:15:00,sdl,9.82
2024-03-28T08:16:00,sdl,9.50
2024-03-28T08:17:00,sdl,8.83
2024-03-28T08:18:00,sdl,8.97
2024-03-28T08:19:00,sdl,7.68
2024-03-28T08:20:00,sdl,7.70
2024-03-28T08:21:00,sdl,7.70
2024-03-28T08:22:00,sdl,7.88
2024-03-28T08:23:00,sdl,9.05
2024-03-28T08:24:00,sdl,9.13
2024-03-28T08:25:00,sdl,9.60
2024-03-28T08:26:00,sdl,9.80
2024-03-28T08:27:00,sdl,9.42
2024-03-28T08:28:00,sdl,8.88
2024-03-28T08:29:00,sdl,8.86
2024-03-28T08:30:00,sdl,8.98
2024-03-28T08:31:00,sdl,9.00
2024-03-28T08:32:00,sdl,11.81
2024-03-28T08:33:00,sdl,11.46
2024-03-28T08:34:00,sdl,11.43
2024-03-28T08:35:00,sdl,11.13
2024-03-28T08:36:00,sdl,11.44
2024-03-28T08:37:00,sdl,11.42
2024-03-28T08:38:00,sdl,11.19
2024-03-28T08:39:00,sdl,11.31
2024-03-28T08:40:00,sdl,11.32
2024-03-28T08:41:00,sdl,11.25
2024-03-28T08:42:00,sdl,11.25
2024-03-28T08:43:00,sdl,11.25
2024-03-28T08:44:00,sdl,11.47
2024-03-28T08:45:00,sdl,11.02
2024-03-28T08:46:00,sdl,11.39
2024-03-28T08:47:00,sdl,11.46
2024-03-28T08:48:00,sdl,11.55
2024-03-28T08:49:00,sdl,10.47
2024-03-28T08:50:00,sdl,10.50
2024-03-28T08:51:00,sdl,10.29
2024-03-28T08:52:00,sdl,11.26
2024-03-28T08:53:00,sdl,10.94
2024-03-28T08:54:00,sdl,10.46
2024-03-28T08:55:00,sdl,11.26
2024-03-28T08:56:00,sdl,10.19
2024-03-28T08:57:00,sdl,10.21
2024-03-28T08:58:00,sdl,10.54
2024-03-28T08:59:00,sdl,10.66
2024-03-28T09:00:00,sdl,9.98
2024-03-28T09:01:00,sdl,9.80
2024-03-28T09:02:00,sdl,9.82
2024-03-28T09:03:00,sdl,9.17
2024-03-28T09:04:00,sdl,8.95
2024-03-28T09:05:00,sdl,9.04
2024-03-28T09:06:00,sdl,8.92
2024-03-28T09:07:00,sdl,9.40
2024-03-28T09:08:00,sdl,9.54
2024-03-28T09:09:00,sdl,9.39
2024-03-28T09:10:00,sdl,9.36
2024-03-28T09:11:00,sdl,9.42
2024-03-28T09:12:00,sdl,9.45
2024-03-28T09:13:00,sdl,8.49
2024-03-28T09:14:00,sdl,8.48
2024-03-28T09:15:00,sdl,8.44
2024-03-28T09:16:00,sdl,8.52
2024-03-28T09:17:00,sdl,11.05
2024-03-28T09:18:00,sdl,10.84
2024-03-28T09:19:00,sdl,10.69
2024-03-28T09:20:00,sdl,10.64
2024-03-28T09:21:00,sdl,10.66
2024-03-28T09:22:00,sdl,10.55
2024-03-28T09:23:00,sdl,10.62
2024-03-28T09:24:00,sdl,10.71
2024-03-28T09:25:00,sdl,10.27
2024-03-28T09:26:00,sdl,10.42
2024-03-28T09:27:00,sdl,8.49
2024-03-28T09:28:00,sdl,8.49
2024-03-28T09:29:00,sdl,8.04
2024-03-28T09:30:00,sdl,8.02
2024-03-28T09:31:00,sdl,7.94
2024-03-28T09:32:00,sdl,7.97
2024-03-28T09:33:00,sdl,9.17
2024-03-28T09:34:00,sdl,8.67
2024-03-28T09:35:00,sdl,9.00
2024-03-28T09:36:00,sdl,9.16
2024-03-28T09:37:00,sdl,8.32
2024-03-28T09:38:00,sdl,8.17
2024-03-28T09:39:00,sdl,7.89
2024-03-28T09:40:00,sdl,7.85
2024-03-28T09:41:00,sdl,7.94
2024-03-28T09:42:00,sdl,8.01
2024-03-28T09:43:00,sdl,8.00
2024-03-28T09:44:00,sdl,10.21
2024-03-28T09:45:00,sdl,10.18
2024-03-28T09:46:00,sdl,10.31
2024-03-28T09:47:00,sdl,10.41
2024-03-28T09:48:00,sdl,10.40
2024-03-28T09:49:00,sdl,10.15
2024-03-28T09:50:00,sdl,10.04
2024-03-28T09:51:00,sdl,11.40
2024-03-28T09:52:00,sdl,10.15
2024-03-28T09:53:00,sdl,10.76
2024-03-28T09:54:00,sdl,10.14
2024-03-28T09:55:00,sdl,10.57
2024-03-28T09:56:00,sdl,10.76
2024-03-28T09:57:00,sdl,10.20
2024-03-28T09:58:00,sdl,10.39
2024-03-28T09:59:00,sdl,10.77
2024-03-28T10:00:00,sdl,10.20
2024-03-28T10:01:00,sdl,10.23
2024-03-28T10:02:00,sdl,10.29
2024-03-28T10:03:00,sdl,8.56
2024-03-28T10:04:00,sdl,8.11
2024-03-28T10:05:00,sdl,8.03
2024-03-28T10:06:00,sdl,8.45
2024-03-28T10:07:00,sdl,9.03
2024-03-28T10:08:00,sdl,8.82
2024-03-28T10:09:00,sdl,8.60
2024-03-28T10:10:00,sdl,8.53
2024-03-28T10:11:00,sdl,9.42
2024-03-28T10:12:00,sdl,9.12
2024-03-28T10:13:00,sdl,8.95
2024-03-28T10:14:00,sdl,8.72
2024-03-28T10:15:00,sdl,9.37
2024-03-28T10:16:00,sdl,9.16
2024-03-28T10:17:00,sdl,10.54
2024-03-28T10:18:00,sdl,8.75
2024-03-28T10:19:00,sdl,8.59
2024-03-28T10:20:00,sdl,8.53
2024-03-28T10:21:00,sdl,8.55
2024-03-28T10:22:00,sdl,8.63
2024-03-28T10:23:00,sdl,8.62
2024-03-28T10:24:00,sdl,8.70
2024-03-28T10:25:00,sdl,8.66
2024-03-28T10:26:00,sdl,8.61
2024-03-28T10:27:00,sdl,9.02
2024-03-28T10:28:00,sdl,9.01
2024-03-28T10:29:00,sdl,8.93
2024-03-28T10:30:00,sdl,9.23
2024-03-28T10:31:00,sdl,8.97
2024-03-28T10:32:00,sdl,8.96
2024-03-28T10:33:00,sdl,9.46
2024-03-28T10:34:00,sdl,9.01
2024-03-28T10:35:00,sdl,8.77
2024-03-28T10:36:00,sdl,9.26
2024-03-28T10:37:00,sdl,8.88
2024-03-28T10:38:00,sdl,8.91
2024-03-28T10:39:00,sdl,8.91
2024-03-28T10:40:00,sdl,8.86
2024-03-28T10:41:00,sdl,11.10
2024-03-28T10:42:00,sdl,11.55
2024-03-28T10:43:00,sdl,11.54
2024-03-28T10:44:00,sdl,11.22
2024-03-28T10:45:00,sdl,11.22
2024-03-28T10:46:00,sdl,11.31
2024-03-28T10:47:00,sdl,11.06
2024-03-28T10:48:00,sdl,12.54
2024-03-28T10:49:00,sdl,13.94
2024-03-28T10:50:00,sdl,12.43
2024-03-28T10:51:00,sdl,12.43
2024-03-28T10:52:00,sdl,11.80
2024-03-28T10:53:00,sdl,12.00
2024-03-28T10:54:00,sdl,11.44
2024-03-28T10:55:00,sdl,11.61
2024-03-28T10:56:00,sdl,9.27
2024-03-28T10:57:00,sdl,9.36
2024-03-28T10:58:00,sdl,9.33
2024-03-28T10:59:00,sdl,9.70
2024-03-28T11:00:00,sdl,9.74
2024-03-28T11:01:00,sdl,9.93
2024-03-28T11:02:00,sdl,9.69
2024-03-28T11:03:00,sdl,9.47
2024-03-28T11:04:00,sdl,10.05
2024-03-28T11:05:00,sdl,9.51
2024-03-28T11:06:00,sdl,9.48
2024-03-28T11:07:00,sdl,9.03
2024-03-28T11:08:00,sdl,8.91
2024-03-28T11:09:00,sdl,9.69
2024-03-28T11:10:00,sdl,11.53
2024-03-28T11:11:00,sdl,11.91
2024-03-28T11:12:00,sdl,12.77
2024-03-28T11:13:00,sdl,12.19
2024-03-28T11:14:00,sdl,12.05
2024-03-28T11:15:00,sdl,12.11
2024-03-28T11:16:00,sdl,12.05
2024-03-28T11:17:00,sdl,12.04
2024-03-28T11:18:00,sdl,12.27
2024-03-28T11:19:00,sdl,12.15
2024-03-28T11:20:00,sdl,11.90
2024-03-28T11:21:00,sdl,11.95
2024-03-28T11:22:00,sdl,11.99
2024-03-28T11:23:00,sdl,8.81
2024-03-28T11:24:00,sdl,8.75
2024-03-28T11:25:00,sdl,7.75
2024-03-28T11:26:00,sdl,7.70
2024-03-28T11:27:00,sdl,7.71
2024-03-28T11:28:00,sdl,8.84
2024-03-28T11:29:00,sdl,8.06
2024-03-28T11:30:00,sdl,7.45
2024-03-28T11:31:00,sdl,7.37
2024-03-28T11:32:00,sdl,7.39
2024-03-28T11:33:00,sdl,7.22
2024-03-28T11:34:00,sdl,7.41
2024-03-28T11:35:00,sdl,6.85
2024-03-28T11:36:00,sdl,6.84
2024-03-28T11:37:00,sdl,6.80
2024-03-28T11:38:00,sdl,6.78
2024-03-28T11:39:00,sdl,6.89
2024-03-28T11:40:00,sdl,6.71
2024-03-28T11:41:00,sdl,6.21
2024-03-28T11:42:00,sdl,6.34
2024-03-28T11:43:00,sdl,6.31
2024-03-28T11:44:00,sdl,6.38
2024-03-28T11:45:00,sdl,6.37
2024-03-28T11:46:00,sdl,6.73
2024-03-28T11:47:00,sdl,6.38
2024-03-28T11:48:00,sdl,6.63
2024-03-28T11:49:00,sdl,6.56
2024-03-28T11:50:00,sdl,6.34
2024-03-28T11:51:00,sdl,6.37
2024-03-28T11:52:00,sdl,6.97
2024-03-28T11:53:00,sdl,6.39
2024-03-28T11:54:00,sdl,6.45
2024-03-28T11:55:00,sdl,6.63
2024-03-28T11:56:00,sdl,6.89
2024-03-28T11:57:00,sdl,6.93
2024-03-28T11:58:00,sdl,9.29
2024-03-28T11:59:00,sdl,8.81
2024-03-28T12:00:00,sdl,8.81
2024-03-28T12:01:00,sdl,8.79
2024-03-28T12:02:00,sdl,8.77
2024-03-28T12:03:00,sdl,8.80
2024-03-28T12:04:00,sdl,8.89
2024-03-28T12:05:00,sdl,8.76
2024-03-28T12:06:00,sdl,8.70
2024-03-28T12:07:00,sdl,8.73
2024-03-28T12:08:00,sdl,8.79
2024-03-28T12:09:00,sdl,8.76
2024-03-28T12:10:00,sdl,9.63
2024-03-28T12:11:00,sdl,9.50
2024-03-28T12:12:00,sdl,9.15
2024-03-28T12:13:00,sdl,9.93
2024-03-28T12:14:00,sdl,10.13
2024-03-28T12:15:00,sdl,10.10
2024-03-28T12:16:00,sdl,8.36
2024-03-28T12:17:00,sdl,10.03
2024-03-28T12:18:00,sdl,6.64
2024-03-28T12:19:00,sdl,6.86
2024-03-28T12:20:00,sdl,6.84
2024-03-28T12:21:00,sdl,6.91
2024-03-28T12:22:00,sdl,8.71
2024-03-28T12:23:00,sdl,6.94
2024-03-28T12:24:00,sdl,6.96
2024-03-28T12:25:00,sdl,7.08
2024-03-28T12:26:00,sdl,7.03
2024-03-28T12:27:00,sdl,7.04
2024-03-28T12:28:00,sdl,7.09
2024-03-28T12:29:00,sdl,7.01
2024-03-28T12:30:00,sdl,7.19
2024-03-28T12:31:00,sdl,7.20
2024-03-28T12:32:00,sdl,7.18
2024-03-28T12:33:00,sdl,7.28
2024-03-28T12:34:00,sdl,10.27
2024-03-28T12:35:00,sdl,9.72
2024-03-28T12:36:00,sdl,9.31
2024-03-28T12:37:00,sdl,9.32
2024-03-28T12:38:00,sdl,9.28
2024-03-28T12:39:00,sdl,8.96
2024-03-28T12:40:00,sdl,8.32
2024-03-28T12:41:00,sdl,8.73
2024-03-28T12:42:00,sdl,9.38
2024-03-28T12:43:00,sdl,9.33
2024-03-28T12:44:00,sdl,9.44
2024-03-28T12:45:00,sdl,7.27
2024-03-28T12:46:00,sdl,7.16
2024-03-28T12:47:00,sdl,7.08
2024-03-28T12:48:00,sdl,7.46
2024-03-28T12:49:00,sdl,7.64
2024-03-28T12:50:00,sdl,7.93
2024-03-28T12:51:00,sdl,7.00
2024-03-28T12:52:00,sdl,7.58
2024-03-28T12:53:00,sdl,7.68
2024-03-28T12:54:00,sdl,7.74
2024-03-28T12:55:00,sdl,6.86
2024-03-28T12:56:00,sdl,6.82
2024-03-28T12:57:00,sdl,6.92
2024-03-28T12:58:00,sdl,7.05
2024-03-28T12:59:00,sdl,6.00
2024-03-28T13:00:00,sdl,6.98
2024-03-28T13:01:00,sdl,6.82
2024-03-28T13:02:00,sdl,6.88
2024-03-28T13:03:00,sdl,6.86
2024-03-28T13:04:00,sdl,6.77
2024-03-28T13:05:00,sdl,8.43
2024-03-28T13:06:00,sdl,8.39
2024-03-28T13:07:00,sdl,9.06
2024-03-28T13:08:00,sdl,8.66
2024-03-28T13:09:00,sdl,8.84
2024-03-28T13:10:00,sdl,8.81
2024-03-28T13:11:00,sdl,7.90
2024-03-28T13:12:00,sdl,8.77
2024-03-28T13:13:00,sdl,9.10
2024-03-28T13:14:00,sdl,7.84
2024-03-28T13:15:00,sdl,8.77
2024-03-28T13:16:00,sdl,8.70
2024-03-28T13:17:00,sdl,8.72
2024-03-28T13:18:00,sdl,8.59
2024-03-28T13:19:00,sdl,8.82
2024-03-28T13:20:00,sdl,9.23
2024-03-28T13:21:00,sdl,8.70
2024-03-28T13:22:00,sdl,9.09
2024-03-28T13:23:00,sdl,9.14
2024-03-28T13:24:00,sdl,9.17
2024-03-28T13:25:00,sdl,9.11
2024-03-28T13:26:00,sdl,8.91
2024-03-28T13:27:00,sdl,8.91
2024-03-28T13:28:00,sdl,9.35
2024-03-28T13:29:00,sdl,6.67
2024-03-28T13:30:00,sdl,6.49
2024-03-28T13:31:00,sdl,6.48
2024-03-28T13:32:00,sdl,6.48
2024-03-28T13:33:00,sdl,6.38
2024-03-28T13:34:00,sdl,6.48
2024-03-28T13:35:00,sdl,7.06
2024-03-28T13:36:00,sdl,6.44
2024-03-28T13:37:00,sdl,7.21
2024-03-28T13:38:00,sdl,7.74
2024-03-28T13:39:00,sdl,7.10
2024-03-28T13:40:00,sdl,7.60
2024-03-28T13:41:00,sdl,7.75